User: anonymous   Login
Location: Unspecified
(0.0000°N, 0.0000°E)
Time: 16:34:02
(UTC+00:00)
Language:

OBJECT Y - Orbit

View from above orbital plane
View from above orbital plane
View from above satellite
View from above satellite

Ground track
Ground track

The orbit data is extracted from the following two-line orbital elements,

1 43133U 18004Y   21333.67865365  .00003055  00000-0  12279-3 0  9992
2 43133  97.3919  45.3688 0008751 359.4856   0.6372 15.25666403215812
Epoch (UTC): 29 November 2021 16:17:15
Eccentricity: 0.0008751
inclination: 97.3919°
perigee height: 483 km
apogee height: 495 km
right ascension of ascending node: 45.3688°
argument of perigee: 359.4856°
revolutions per day: 15.25666403
mean anomaly at epoch: 0.6372°
orbit number at epoch: 21581

The dashed part of the orbit path shows where the satellite is in the earth's shadow,  

DLR